Wind_Speed
21 21 21 22 24 25 24 23 23 23 23 24 24 24 24 24 24 24 23 21 20 20 20 20 19 19 18 18 18 18 18 17 17 16 16 15 15 15 14 14 14 14 13 12 12 11 10 10 10
21 21 22 23 24 24 23 24 24 24 24 25 25 25 25 25 25 24 23 22 21 21 22 22 21 21 21 20 20 20 19 19 18 18 17 17 17 16 16 16 16 15 15 14 14 13 12 11 10
21 21 22 23 23 23 23 23 24 24 25 25 26 26 27 26 25 25 24 23 22 22 23 23 23 23 22 22 22 22 21 20 20 19 19 18 18 18 17 17 17 17 16 16 15 15 13 13 12
20 21 22 23 22 22 23 23 24 25 25 26 26 27 27 27 26 26 25 25 24 23 23 24 24 24 23 24 24 23 22 22 21 21 20 20 19 19 19 18 18 18 18 17 17 16 15 14 13
20 21 22 23 23 23 24 23 24 25 25 26 26 27 27 28 28 27 27 27 26 25 25 25 25 25 24 24 24 24 23 23 23 22 22 21 20 20 20 20 19 19 19 19 19 18 17 16 15
20 21 21 22 23 23 24 24 24 25 25 25 26 27 27 27 28 29 28 28 28 27 27 27 26 26 25 24 25 25 25 24 23 23 23 23 22 21 20 21 21 20 20 20 20 20 19 18 17
20 20 21 21 22 22 22 24 25 25 25 25 27 28 28 28 29 29 30 30 30 29 28 28 28 27 27 26 25 25 25 25 25 24 24 24 24 23 22 22 22 22 22 21 21 21 20 19 18
20 21 21 21 22 22 21 23 24 25 25 26 27 28 28 29 30 30 30 31 31 31 30 30 30 29 28 27 27 26 26 26 26 25 25 24 24 24 23 24 24 24 23 23 23 22 21 21 20
22 22 22 22 22 22 22 23 24 25 25 26 27 28 29 29 30 31 32 32 33 33 32 32 32 31 29 28 28 27 27 27 27 26 26 26 25 25 25 25 25 25 25 24 24 24 23 22 21
22 23 22 23 23 23 23 24 24 25 25 26 27 28 29 29 30 31 32 32 33 33 33 33 34 33 32 31 30 29 28 28 28 28 28 27 27 26 25 25 26 26 26 26 25 26 25 24 23
23 23 23 24 24 24 24 25 25 25 26 27 27 28 28 29 31 32 32 31 32 33 33 34 34 34 34 33 32 31 30 30 29 29 29 28 28 28 27 26 26 27 27 26 26 26 27 26 25
24 23 24 24 25 25 25 26 26 26 26 27 27 28 29 29 30 31 32 32 33 34 34 34 35 35 35 34 34 32 32 31 30 30 30 30 29 29 28 28 27 27 27 27 27 27 27 28 27
25 24 24 24 25 25 25 25 26 26 27 27 27 28 29 30 30 32 33 34 34 34 34 35 35 36 36 35 35 33 32 32 31 31 31 31 31 30 29 29 28 28 28 28 28 28 28 28 28
26 25 25 24 25 26 26 26 26 25 27 27 28 28 29 30 30 32 33 34 34 35 34 36 36 36 37 37 36 35 34 33 32 32 32 32 31 30 29 29 29 29 29 29 29 29 29 29 29
27 26 26 25 26 26 27 26 26 26 28 27 28 28 29 29 30 31 33 34 34 35 34 36 36 36 37 38 38 37 36 35 34 33 33 33 32 30 30 30 31 30 30 30 30 30 30 30 30
28 27 26 25 26 27 27 26 26 27 28 28 28 29 29 30 30 30 32 34 35 35 35 36 37 36 37 39 39 39 38 37 36 35 34 34 33 31 31 31 31 32 31 31 31 32 32 32 32
28 28 27 26 27 27 28 27 27 28 29 28 29 29 30 30 30 30 31 33 35 35 36 36 37 37 37 39 40 40 40 39 37 37 37 36 35 33 31 31 32 32 33 33 33 33 33 33 33
29 30 28 27 27 28 28 27 26 28 29 28 29 29 29 30 30 30 30 31 34 35 35 37 38 38 38 39 40 42 41 41 40 39 39 38 36 34 32 32 31 31 33 34 34 34 34 34 33
31 31 29 28 28 28 28 27 26 28 27 28 28 28 27 27 28 29 30 31 33 35 35 35 37 38 39 39 40 41 41 42 41 41 40 40 38 36 34 34 33 33 33 34 35 35 35 34 34
32 32 30 29 29 30 29 27 26 27 27 27 27 26 26 27 27 28 30 31 32 34 36 36 38 39 39 39 40 41 42 42 42 41 40 41 40 38 37 36 36 35 34 35 36 37 37 37 37
33 32 30 30 31 31 31 29 26 26 27 27 27 26 26 26 27 28 30 31 32 33 35 36 38 39 40 40 41 40 41 42 43 42 42 41 41 39 38 38 38 38 37 37 37 38 38 39 40
33 32 32 32 32 32 32 32 26 25 26 26 27 26 25 26 27 28 29 31 32 33 34 35 37 38 39 40 42 41 41 41 43 43 44 43 43 42 40 39 39 39 39 39 39 38 39 40 41
33 33 33 33 33 33 32 33 27 25 26 25 25 25 26 26 26 27 28 30 32 33 34 34 36 37 38 40 41 42 41 40 41 42 44 44 44 44 42 40 40 40 40 40 40 39 40 40 41
34 33 33 34 34 35 31 32 30 26 26 26 26 26 26 26 25 26 27 29 31 32 32 33 35 37 38 40 41 41 41 40 41 42 42 43 43 43 43 41 41 41 42 42 42 41 41 41 42
34 33 34 35 35 35 32 33 31 27 27 26 26 26 26 26 25 25 26 27 29 30 31 32 34 35 37 38 40 41 40 41 42 42 43 44 44 43 43 43 43 43 43 43 43 43 43 43 44
34 34 35 35 36 35 34 33 30 28 28 27 27 26 26 26 26 25 26 27 28 29 30 31 33 34 35 37 40 40 39 39 41 42 43 44 44 44 44 45 44 43 44 45 45 45 45 45 45
35 35 35 35 37 36 35 33 30 29 28 27 27 27 26 26 26 25 26 27 27 28 29 30 31 32 33 35 38 40 40 38 40 42 44 44 44 44 44 45 44 45 45 46 46 46 46 45 45
35 34 33 35 36 36 35 33 31 30 29 27 27 27 26 25 25 25 25 25 26 27 29 30 30 31 33 34 36 39 40 39 40 42 43 44 45 45 45 44 44 44 45 46 46 46 46 45 44
34 35 35 36 36 37 36 34 32 31 29 28 28 27 26 26 25 25 25 25 26 27 28 30 31 31 32 34 35 37 38 40 41 42 42 43 45 45 46 46 45 44 43 43 43 44 45 45 44
35 35 36 37 37 36 36 33 30 31 29 29 28 28 28 27 27 26 26 26 26 27 28 30 31 31 32 33 34 35 36 37 39 41 42 43 44 44 45 45 44 44 43 43 43 44 45 46 46
Wind_Direction
264 264 263 262 260 259 258 256 253 250 250 249 249 248 247 247 248 250 251 249 247 246 246 244 242 241 240 239 237 238 241 241 240 241 244 245 245 244 243 240 237 236 235 235 236 235 233 232 233
266 265 264 263 262 261 258 255 253 250 249 248 248 248 248 248 248 249 249 249 246 246 247 246 244 242 241 240 239 238 240 241 243 242 244 246 246 245 244 243 239 237 237 237 237 237 237 236 236
268 266 265 263 261 260 257 254 253 251 249 249 248 248 248 249 250 250 249 248 247 246 247 248 246 244 242 241 241 240 240 242 243 244 245 246 247 245 244 243 240 238 238 238 239 237 237 238 239
270 267 265 262 259 257 256 255 254 252 250 249 249 248 248 249 249 250 249 249 248 247 246 247 246 244 243 242 242 241 242 243 244 245 245 246 246 244 242 242 240 239 239 239 238 239 239 239 240
271 269 267 263 260 258 256 255 255 254 252 250 249 250 250 250 250 249 248 249 247 246 246 246 246 244 242 241 241 242 242 243 245 246 246 246 244 242 240 240 241 240 239 239 238 239 240 240 240
272 269 267 265 261 259 258 257 256 256 254 252 251 251 251 252 250 249 249 249 248 246 245 246 245 243 242 242 242 243 244 243 245 246 246 244 242 241 241 241 241 241 240 238 238 238 239 240 240
273 270 268 266 262 260 259 258 256 256 255 254 253 252 252 253 253 252 251 249 248 246 244 245 245 244 243 243 242 242 243 243 243 245 245 242 241 242 241 242 243 243 243 241 239 239 240 239 241
273 271 268 266 261 260 260 260 258 256 255 255 254 254 253 253 254 253 252 251 249 247 244 243 244 244 243 243 242 241 242 243 243 244 242 240 241 242 242 243 244 244 243 242 241 239 239 239 240
273 270 269 267 263 261 260 260 260 260 258 255 255 256 255 254 254 254 252 251 250 248 245 243 243 243 243 242 242 241 242 243 242 242 241 240 242 243 244 244 245 244 244 244 242 240 239 239 241
273 270 269 268 265 262 261 260 260 260 260 258 257 257 256 254 254 254 252 250 249 247 245 243 242 242 242 241 241 241 242 243 243 242 241 240 241 243 245 245 245 244 244 244 244 241 238 238 240
273 271 269 268 266 263 261 260 261 262 261 261 261 260 258 255 253 254 253 250 249 246 245 243 241 241 241 240 239 241 243 244 243 242 241 241 242 243 245 247 245 245 245 244 244 241 238 238 240
272 270 269 268 268 266 263 261 262 263 266 265 264 263 260 256 254 254 253 249 248 245 245 243 240 240 240 239 238 240 241 242 243 242 241 242 243 244 246 247 246 245 245 245 243 242 240 239 241
271 270 269 268 268 267 265 264 263 266 266 266 265 266 264 258 256 254 252 249 246 244 243 242 240 239 238 237 237 238 240 241 242 241 240 242 244 245 246 247 247 247 246 245 243 242 243 241 242
271 269 268 269 268 267 266 265 265 265 265 267 267 267 267 262 258 256 253 249 246 244 242 241 240 239 238 236 236 237 239 239 240 240 240 241 244 245 246 247 247 248 248 247 244 243 245 243 243
270 268 268 269 269 268 266 265 266 265 266 268 267 267 267 263 259 256 254 249 246 244 242 240 239 239 238 236 235 236 238 239 239 239 240 241 242 244 246 246 247 248 249 249 247 245 246 245 244
270 269 268 269 270 270 268 265 265 266 268 270 269 267 266 264 260 258 255 252 249 246 243 241 239 239 239 237 236 236 237 239 239 238 239 241 241 242 245 246 247 248 249 249 249 248 246 246 246
269 269 269 268 269 269 269 268 266 266 269 271 271 269 266 263 261 259 257 254 250 248 245 242 241 241 240 238 237 237 238 238 239 238 237 239 241 242 244 246 247 248 248 248 249 250 249 246 247
270 269 270 269 269 268 269 270 270 268 270 271 272 270 267 264 262 260 257 254 250 249 247 244 242 242 241 239 238 237 239 239 240 239 238 238 240 241 243 246 248 249 249 247 247 248 248 247 248
268 269 271 270 269 268 269 269 270 269 271 272 272 271 267 263 263 261 258 255 251 248 249 246 244 244 242 241 240 239 240 240 241 240 240 239 239 241 243 245 248 249 249 248 248 247 249 250 250
266 267 269 269 268 268 268 269 270 271 272 273 271 271 267 263 263 261 259 254 250 249 249 246 246 246 245 242 241 239 239 240 239 240 240 240 241 243 245 245 247 249 250 251 251 250 252 253 253
264 266 267 267 265 267 268 267 268 271 272 272 271 270 268 266 263 262 258 255 253 251 251 250 246 245 246 244 241 240 239 240 240 240 240 242 242 245 247 248 249 249 250 252 253 252 252 253 253
263 265 265 265 265 266 267 268 264 268 271 272 272 271 270 269 266 264 261 257 255 254 253 251 247 246 246 245 242 241 241 240 241 241 241 243 244 246 248 249 249 250 250 251 252 253 253 254 254
261 261 262 263 264 265 266 269 266 268 270 272 275 274 272 272 269 266 263 260 257 255 254 252 248 246 245 244 242 241 241 240 241 241 242 242 244 244 247 250 250 250 251 253 253 254 254 254 254
259 258 259 261 262 264 265 268 267 270 272 272 273 274 272 271 270 267 264 262 259 256 255 254 250 246 245 242 240 240 241 241 242 242 242 242 243 245 246 250 250 251 252 253 254 253 253 254 254
254 255 258 260 260 264 265 266 268 271 273 274 274 273 271 272 272 271 268 263 261 257 257 255 252 250 247 243 240 240 243 244 243 243 243 242 244 245 247 249 250 250 251 252 253 253 252 254 255
254 254 257 261 263 264 264 265 268 271 273 275 274 272 271 272 272 271 269 264 262 259 258 256 253 252 249 246 241 242 244 245 245 245 243 243 246 247 248 249 251 250 251 252 254 254 252 253 254
253 254 256 260 262 264 264 265 266 270 273 274 274 274 274 273 273 272 269 267 263 259 258 258 255 253 251 248 244 243 245 246 246 246 245 245 246 247 249 249 251 252 252 252 253 254 253 253 253
253 253 254 256 260 263 265 265 268 269 271 273 273 273 273 274 276 275 272 270 265 261 259 258 256 253 252 249 246 247 245 247 247 247 247 247 246 247 250 250 251 253 253 253 253 253 254 254 253
252 251 252 255 258 262 266 267 269 271 271 271 272 272 272 274 275 275 273 271 266 261 260 258 255 254 252 249 249 249 248 248 249 249 248 249 248 248 249 249 250 252 253 253 254 255 255 255 255
253 253 253 254 257 261 264 267 269 271 270 270 270 271 272 273 274 274 272 270 265 261 260 258 256 255 253 252 251 251 251 249 249 249 249 250 249 249 249 249 251 252 253 255 255 256 257 257 257
Height
5820 5820 5820 5821 5821 5821 5822 5823 5823 5825 5826 5826 5827 5829 5830 5832 5834 5838 5838 5839 5840 5841 5842 5843 5844 5845 5846 5847 5848 5849 5850 5851 5852 5853 5854 5855 5855 5856 5857 5858 5859 5860 5861 5861 5862 5862 5863 5863 5864
5815 5815 5816 5815 5815 5815 5817 5817 5818 5819 5820 5821 5822 5823 5825 5826 5828 5831 5832 5834 5835 5837 5838 5839 5840 5841 5842 5843 5845 5846 5847 5848 5849 5850 5851 5851 5852 5853 5854 5854 5855 5857 5858 5859 5860 5860 5861 5862 5862
5810 5810 5810 5809 5809 5810 5811 5812 5812 5813 5813 5815 5816 5818 5820 5821 5823 5825 5827 5829 5830 5832 5833 5834 5836 5837 5838 5839 5840 5842 5843 5844 5845 5846 5847 5848 5848 5849 5850 5851 5852 5853 5855 5856 5857 5858 5859 5860 5860
5805 5805 5804 5804 5804 5804 5805 5806 5806 5807 5808 5809 5811 5812 5814 5816 5818 5820 5821 5823 5825 5827 5828 5829 5830 5832 5833 5834 5836 5837 5839 5840 5841 5842 5843 5844 5844 5845 5846 5847 5848 5849 5851 5853 5854 5855 5856 5857 5858
5799 5799 5798 5798 5798 5799 5799 5800 5800 5801 5802 5804 5805 5806 5808 5810 5811 5813 5815 5817 5819 5821 5822 5824 5825 5826 5828 5829 5831 5832 5834 5836 5837 5838 5839 5839 5840 5841 5842 5843 5844 5846 5847 5849 5850 5852 5853 5854 5855
5794 5793 5793 5792 5792 5793 5793 5794 5795 5795 5796 5798 5799 5800 5802 5804 5805 5807 5809 5811 5813 5815 5817 5818 5819 5821 5823 5824 5826 5827 5829 5831 5832 5833 5833 5834 5835 5837 5838 5840 5841 5842 5843 5845 5846 5848 5850 5851 5852
5789 5788 5787 5787 5787 5787 5788 5788 5789 5789 5791 5792 5793 5794 5796 5797 5798 5800 5802 5803 5805 5808 5810 5812 5813 5815 5817 5819 5820 5822 5824 5825 5827 5828 5829 5830 5831 5832 5834 5835 5837 5838 5839 5840 5842 5844 5845 5847 5848
5783 5783 5782 5781 5781 5782 5782 5782 5782 5783 5784 5785 5786 5787 5789 5790 5791 5792 5794 5796 5798 5800 5803 5805 5807 5809 5811 5813 5815 5816 5818 5820 5821 5822 5823 5825 5826 5828 5829 5831 5832 5833 5835 5836 5837 5839 5841 5843 5844
5777 5778 5776 5776 5776 5777 5777 5776 5776 5777 5778 5779 5779 5781 5782 5783 5784 5785 5787 5788 5790 5793 5796 5798 5800 5803 5805 5807 5809 5811 5812 5814 5815 5817 5818 5820 5822 5823 5824 5826 5827 5828 5830 5831 5833 5834 5836 5838 5840
5771 5771 5771 5771 5771 5771 5770 5770 5770 5771 5771 5772 5772 5773 5775 5775 5776 5778 5779 5780 5782 5785 5788 5791 5793 5796 5798 5801 5803 5805 5807 5808 5810 5811 5813 5815 5816 5818 5819 5821 5822 5823 5825 5826 5828 5829 5831 5833 5835
5765 5765 5765 5764 5764 5764 5764 5763 5763 5764 5765 5765 5766 5766 5767 5768 5769 5769 5771 5772 5774 5776 5779 5783 5786 5788 5791 5794 5796 5798 5800 5802 5804 5806 5808 5809 5811 5813 5814 5815 5817 5818 5819 5821 5823 5824 5826 5828 5830
5760 5759 5758 5758 5757 5757 5757 5757 5757 5758 5758 5758 5758 5758 5759 5760 5761 5762 5763 5765 5766 5768 5771 5774 5777 5780 5783 5786 5789 5791 5793 5796 5798 5800 5802 5804 5805 5807 5809 5810 5811 5812 5814 5815 5817 5819 5821 5823 5825
5753 5753 5752 5751 5751 5750 5750 5750 5750 5751 5751 5750 5750 5750 5751 5751 5752 5753 5754 5755 5757 5759 5762 5765 5768 5772 5775 5778 5781 5784 5786 5789 5791 5793 5795 5797 5799 5801 5803 5804 5805 5806 5808 5810 5811 5813 5815 5817 5819
5746 5746 5745 5745 5744 5743 5743 5743 5743 5744 5743 5743 5743 5743 5743 5743 5743 5744 5745 5746 5748 5750 5752 5756 5760 5763 5767 5770 5773 5776 5779 5781 5783 5786 5788 5790 5793 5795 5796 5798 5799 5801 5802 5804 5806 5808 5810 5812 5813
5739 5739 5739 5738 5737 5737 5736 5737 5736 5736 5735 5735 5735 5735 5735 5734 5734 5735 5736 5737 5739 5741 5743 5747 5751 5754 5758 5761 5764 5768 5771 5773 5775 5778 5781 5784 5786 5788 5790 5791 5793 5794 5796 5798 5800 5801 5803 5805 5807
5732 5732 5732 5732 5731 5730 5730 5731 5730 5728 5728 5728 5728 5727 5727 5727 5726 5727 5728 5729 5730 5732 5734 5738 5741 5744 5748 5752 5756 5759 5762 5765 5767 5770 5773 5776 5779 5782 5783 5785 5786 5788 5790 5791 5793 5795 5797 5799 5801
5725 5724 5724 5725 5723 5722 5721 5723 5723 5721 5720 5720 5720 5719 5719 5719 5719 5719 5719 5720 5722 5724 5726 5728 5732 5735 5739 5742 5746 5750 5753 5756 5759 5762 5765 5768 5771 5774 5776 5778 5780 5781 5783 5785 5786 5788 5790 5792 5794
5717 5717 5717 5717 5716 5715 5714 5715 5715 5713 5713 5713 5712 5711 5711 5711 5711 5710 5711 5712 5713 5715 5717 5720 5723 5726 5729 5732 5736 5740 5744 5747 5750 5753 5756 5760 5763 5766 5768 5771 5772 5774 5775 5777 5779 5781 5783 5784 5787
5708 5708 5709 5710 5708 5707 5707 5707 5707 5706 5705 5705 5704 5703 5703 5703 5703 5702 5703 5703 5705 5707 5709 5711 5714 5716 5719 5722 5726 5730 5734 5738 5741 5744 5747 5751 5754 5757 5760 5762 5765 5766 5768 5770 5771 5773 5775 5777 5779
5699 5700 5701 5701 5700 5698 5699 5699 5700 5699 5698 5697 5696 5696 5695 5695 5695 5695 5695 5696 5697 5698 5700 5702 5705 5707 5709 5712 5716 5719 5723 5727 5730 5734 5737 5741 5745 5748 5751 5753 5756 5758 5760 5761 5763 5765 5767 5769 5770
5691 5692 5693 5692 5691 5690 5690 5692 5693 5692 5691 5690 5689 5688 5688 5687 5688 5687 5687 5688 5688 5689 5691 5693 5695 5697 5699 5702 5705 5709 5713 5716 5720 5724 5728 5732 5736 5739 5742 5744 5747 5749 5751 5753 5755 5756 5758 5760 5762
5682 5684 5684 5683 5683 5683 5683 5682 5687 5685 5683 5682 5682 5681 5681 5680 5680 5680 5680 5680 5680 5681 5682 5683 5685 5687 5690 5693 5695 5699 5703 5706 5711 5715 5719 5722 5726 5729 5732 5734 5737 5740 5742 5744 5746 5747 5749 5751 5753
5674 5674 5674 5674 5673 5674 5675 5674 5678 5678 5676 5676 5675 5674 5674 5673 5673 5672 5672 5671 5672 5672 5673 5674 5675 5678 5680 5683 5685 5689 5692 5696 5700 5704 5708 5712 5716 5719 5722 5724 5727 5730 5732 5734 5736 5737 5739 5741 5743
5664 5665 5665 5664 5664 5665 5668 5666 5668 5670 5669 5669 5668 5667 5667 5666 5665 5664 5664 5663 5663 5663 5664 5665 5666 5668 5670 5673 5675 5679 5682 5686 5689 5693 5698 5702 5706 5709 5712 5714 5717 5719 5721 5723 5725 5727 5729 5731 5732
5654 5656 5656 5655 5655 5657 5660 5658 5661 5662 5662 5661 5661 5660 5659 5658 5657 5656 5656 5655 5655 5655 5656 5657 5657 5659 5660 5663 5666 5669 5673 5676 5679 5683 5687 5692 5695 5699 5701 5704 5706 5708 5710 5712 5714 5716 5718 5720 5721
5645 5647 5648 5647 5647 5649 5650 5649 5654 5655 5654 5653 5653 5652 5652 5651 5650 5649 5648 5648 5647 5647 5648 5648 5649 5650 5652 5654 5657 5660 5663 5666 5669 5673 5676 5681 5685 5688 5690 5693 5694 5696 5698 5700 5702 5704 5706 5708 5710
5635 5637 5639 5639 5638 5639 5640 5642 5646 5646 5646 5645 5645 5645 5644 5643 5643 5642 5641 5640 5640 5640 5640 5640 5641 5642 5644 5645 5648 5651 5654 5657 5660 5663 5666 5669 5673 5676 5678 5681 5683 5684 5686 5688 5690 5692 5694 5696 5698
5626 5628 5629 5629 5629 5629 5631 5634 5637 5638 5638 5638 5638 5637 5637 5636 5635 5634 5633 5633 5632 5632 5632 5632 5633 5634 5635 5637 5639 5642 5644 5647 5650 5652 5655 5659 5662 5665 5667 5669 5671 5673 5674 5676 5678 5680 5682 5684 5686
5616 5618 5619 5620 5621 5622 5623 5628 5630 5630 5630 5630 5630 5629 5629 5628 5627 5627 5626 5625 5625 5624 5624 5625 5625 5626 5627 5629 5631 5633 5635 5638 5640 5642 5645 5647 5650 5653 5655 5657 5659 5661 5663 5665 5667 5669 5670 5672 5675
5606 5608 5610 5612 5612 5613 5614 5621 5621 5621 5620 5621 5621 5621 5621 5620 5620 5619 5618 5617 5617 5617 5617 5617 5617 5618 5620 5621 5623 5624 5626 5628 5631 5632 5635 5637 5639 5642 5644 5646 5648 5650 5652 5654 5655 5657 5659 5661 5663